Location: Bluff Heights
(33.7692°N, 118.1592°W)
Time: 08:53:32
(UTC+00:00)

Tiros 1 - Pass Details

Date: 25 July 2021
Orbit: 630 x 663 km, 48.4° (Epoch: 22 September)

Event Time Altitude Azimuth Distance (km) Brightness Sun altitude
Rises 07:14:52 0° 302° (WNW) 2,953 11.1 -35.6°
Reaches altitude 10° 07:18:28 10° 330° (NNW) 2,035 10.4 -35.8°
Maximum altitude 07:20:40 13° 358° (N) 1,831 10.2 -35.9°
Drops below altitude 10° 07:22:52 10° 26° (NNE) 2,026 10.2 -36.0°
Sets 07:26:27 0° 54° (NE) 2,927 10.8 -36.1°
